Cumberland, WV

11:19 AM EST on January 17, 2018 (GMT -0500)
Greater Cumberland Regional

Weather History for KCBE - October, 2011

Change the Weather History Date:

Tuesday, October 4, 2011

  Actual Average (KMRB) Record (KMRB)
Temperature  
Mean Temperature 52 °F -  
Max Temperature 60 °F 71 °F 89 °F (1959)
Min Temperature 44 °F 47 °F 25 °F (1974)
Degree Days  
Heating Degree Days 13    
Growing Degree Days 2 (Base 50)    
Moisture  
Dew Point 50 °F    
Average Humidity 91    
Maximum Humidity 100    
Minimum Humidity 72    
Precipitation  
Precipitation 0.00 in - - ()
Sea Level Pressure  
Sea Level Pressure 30.20 in    
Wind  
Wind Speed 1 mph (NW)    
Max Wind Speed 9 mph    
Max Gust Speed 18 mph    
Visibility 7 miles    
Events      
Averages and records for this station are not official NWS values.
T = Trace of Precipitation, MM = Missing Value Source: NWS Daily Summary

Daily Weather History Graph

Daily Weather History Graph

Search for Another Location

Airport or City:

Trip Planner

Search our weather history database for the weather conditions in past years. The results will help you decide how hot, cold, wet, or windy it might be!

Date:

Astronomy

Oct. 04, 2011 Rise Set
Actual Time 7:13 AM EDT 6:53 PM EDT
Civil Twilight 6:46 AM EDT 7:19 PM EDT
Nautical Twilight 6:15 AM EDT 7:51 PM EDT
Astronomical Twilight 5:44 AM EDT 8:22 PM EDT
Moon 2:52 PM EDT (10/4) No Moon Set
Length of Visible Light 12h 33m
Length of Day
11h 39m
First Quarter, 56% of the Moon is Illuminated
Oct 4
First Quarter
Oct 11
Full
Oct 19
Last Quarter
Oct 26
New
Nov 2
First Quarter

Hourly Weather History & Observations

Time (EDT) Temp. Windchill Dew Point Humidity Pressure Visibility Wind Dir Wind Speed Gust Speed Precip Events Conditions
12:16 AM 50.0 °F - 50.0 °F 100% 30.15 in 10.0 mi Calm Calm - N/A   Mostly Cloudy
12:37 AM 50.0 °F - 50.0 °F 100% 30.15 in 10.0 mi Calm Calm - N/A   Mostly Cloudy
12:58 AM 48.2 °F - 48.2 °F 100% 30.15 in 10.0 mi Calm Calm - N/A   Overcast
1:20 AM 48.2 °F - 48.2 °F 100% 30.14 in 7.0 mi Calm Calm - N/A   Mostly Cloudy
1:41 AM 48.2 °F - 48.2 °F 100% 30.14 in 7.0 mi Calm Calm - N/A   Mostly Cloudy
2:02 AM 48.2 °F - 48.2 °F 100% 30.14 in 1.8 mi Calm Calm - N/A   Overcast
2:24 AM 48.2 °F - 48.2 °F 100% 30.15 in 3.0 mi Calm Calm - N/A   Overcast
2:45 AM 46.4 °F - 46.4 °F 100% 30.15 in 3.0 mi Calm Calm - N/A   Mostly Cloudy
3:06 AM 46.4 °F - 46.4 °F 100% 30.14 in 1.0 mi Calm Calm - N/A   Overcast
3:28 AM 46.4 °F - 46.4 °F 100% 30.15 in 2.0 mi Calm Calm - N/A   Mostly Cloudy
3:49 AM 46.4 °F - 46.4 °F 100% 30.15 in 0.2 mi Calm Calm - N/A   Overcast
4:11 AM 46.4 °F - 46.4 °F 100% 30.16 in 0.2 mi Calm Calm - N/A   Overcast
4:32 AM 46.4 °F - 46.4 °F 100% 30.16 in 0.2 mi Calm Calm - N/A   Overcast
4:53 AM 46.4 °F - 46.4 °F 100% 30.16 in 0.2 mi Calm Calm - N/A   Overcast
5:15 AM 46.4 °F - 46.4 °F 100% 30.15 in 0.2 mi Calm Calm - N/A   Overcast
5:36 AM 46.4 °F - 46.4 °F 100% 30.16 in 0.5 mi Calm Calm - N/A   Overcast
5:57 AM 46.4 °F - 46.4 °F 100% 30.16 in 0.2 mi Calm Calm - N/A   Overcast
6:19 AM 44.6 °F 43.1 °F 44.6 °F 100% 30.17 in 0.2 mi ENE 3.5 mph - N/A   Overcast
6:40 AM 44.6 °F 43.1 °F 44.6 °F 100% 30.18 in 0.5 mi ENE 3.5 mph - N/A   Overcast
7:01 AM 46.4 °F - 46.4 °F 100% 30.18 in 0.2 mi Calm Calm - N/A   Overcast
7:22 AM 46.4 °F - 46.4 °F 100% 30.20 in 0.5 mi Calm Calm - N/A   Overcast
7:44 AM 46.4 °F - 46.4 °F 100% 30.20 in 2.5 mi Calm Calm - N/A   Overcast
8:05 AM 46.4 °F - 46.4 °F 100% 30.21 in 1.2 mi Calm Calm - N/A   Overcast
8:26 AM 46.4 °F - 46.4 °F 100% 30.22 in 3.0 mi Calm Calm - N/A   Overcast
8:48 AM 46.4 °F - 46.4 °F 100% 30.22 in 5.0 mi Calm Calm - N/A   Overcast
9:09 AM 50.0 °F - 50.0 °F 100% 30.23 in 10.0 mi Calm Calm - N/A   Overcast
9:30 AM 50.0 °F - 50.0 °F 100% 30.23 in 5.0 mi Calm Calm - N/A   Overcast
9:51 AM 50.0 °F - 50.0 °F 100% 30.24 in 7.0 mi Calm Calm - N/A   Mostly Cloudy
10:13 AM 51.8 °F - 51.8 °F 100% 30.24 in 10.0 mi Calm Calm - N/A   Overcast
10:34 AM 51.8 °F - 51.8 °F 100% 30.24 in 10.0 mi Calm Calm - N/A   Overcast
10:55 AM 53.6 °F - 53.6 °F 100% 30.24 in 7.0 mi Calm Calm - N/A   Mostly Cloudy
11:17 AM 55.4 °F - 55.4 °F 100% 30.24 in 10.0 mi Calm Calm - N/A   Mostly Cloudy
11:38 AM 55.4 °F - 55.4 °F 100% 30.24 in 10.0 mi Calm Calm - N/A   Mostly Cloudy
11:59 AM 57.2 °F - 55.4 °F 94% 30.24 in 10.0 mi Calm Calm - N/A   Overcast
12:21 PM 59.0 °F - 55.4 °F 88% 30.23 in 10.0 mi WSW 6.9 mph - N/A   Overcast
12:42 PM 59.0 °F - 55.4 °F 88% 30.23 in 10.0 mi West 6.9 mph - N/A   Overcast
1:03 PM 60.8 °F - 53.6 °F 77% 30.23 in 10.0 mi WNW 5.8 mph 18.4 mph N/A   Overcast
1:24 PM 60.8 °F - 53.6 °F 77% 30.22 in 10.0 mi WNW 4.6 mph - N/A   Overcast
1:46 PM 60.8 °F - 53.6 °F 77% 30.22 in 10.0 mi NW 9.2 mph 16.1 mph N/A   Overcast
2:07 PM 60.8 °F - 51.8 °F 72% 30.22 in 10.0 mi Calm Calm - N/A   Overcast
2:28 PM 60.8 °F - 51.8 °F 72% 30.22 in 10.0 mi WSW 4.6 mph - N/A   Overcast
2:50 PM 60.8 °F - 53.6 °F 77% 30.22 in 10.0 mi NW 3.5 mph - N/A   Overcast
3:11 PM 60.8 °F - 53.6 °F 77% 30.21 in 10.0 mi WNW 8.1 mph - N/A   Overcast
3:32 PM 60.8 °F - 51.8 °F 72% 30.22 in 10.0 mi NNW 6.9 mph 17.3 mph N/A   Overcast
3:54 PM 60.8 °F - 53.6 °F 77% 30.22 in 10.0 mi NW 5.8 mph - N/A   Overcast
4:15 PM 60.8 °F - 53.6 °F 77% 30.22 in 10.0 mi NNW 4.6 mph - N/A   Overcast
4:36 PM 60.8 °F - 53.6 °F 77% 30.22 in 10.0 mi North 5.8 mph - N/A   Overcast
4:57 PM 60.8 °F - 53.6 °F 77% 30.22 in 10.0 mi Calm Calm - N/A   Overcast
5:19 PM 60.8 °F - 53.6 °F 77% 30.22 in 10.0 mi Calm Calm - N/A   Overcast
5:40 PM 60.8 °F - 53.6 °F 77% 30.22 in 10.0 mi Calm Calm - N/A   Overcast
6:01 PM 60.8 °F - 53.6 °F 77% 30.22 in 10.0 mi Calm Calm - N/A   Overcast
6:23 PM 60.8 °F - 53.6 °F 77% 30.23 in 10.0 mi West 3.5 mph - N/A   Overcast
6:44 PM 60.8 °F - 53.6 °F 77% 30.24 in 10.0 mi WNW 5.8 mph - N/A   Overcast
7:05 PM 60.8 °F - 51.8 °F 72% 30.24 in 10.0 mi NW 5.8 mph - N/A   Mostly Cloudy
7:26 PM 60.8 °F - 51.8 °F 72% 30.24 in 10.0 mi Calm Calm - N/A   Scattered Clouds
7:48 PM 59.0 °F - 51.8 °F 77% 30.25 in 10.0 mi West 3.5 mph - N/A   Scattered Clouds
8:09 PM 59.0 °F - 51.8 °F 77% 30.25 in 10.0 mi West 5.8 mph - N/A   Scattered Clouds
8:30 PM 59.0 °F - 51.8 °F 77% 30.25 in 10.0 mi WNW 4.6 mph - N/A   Scattered Clouds
8:52 PM 59.0 °F - 51.8 °F 77% 30.25 in 10.0 mi Calm Calm - N/A   Scattered Clouds
9:13 PM 57.2 °F - 53.6 °F 88% 30.25 in 10.0 mi Calm Calm - N/A   Scattered Clouds
9:34 PM 53.6 °F - 51.8 °F 94% 30.25 in 10.0 mi NW 3.5 mph - N/A   Scattered Clouds
9:56 PM 53.6 °F - 51.8 °F 94% 30.25 in 10.0 mi Calm Calm - N/A   Clear
10:17 PM 53.6 °F - 53.6 °F 100% 30.25 in 10.0 mi WNW 3.5 mph - N/A   Clear
10:38 PM 51.8 °F - 51.8 °F 100% 30.25 in 10.0 mi Calm Calm - N/A   Clear
11:00 PM 51.8 °F - 51.8 °F 100% 30.25 in 10.0 mi Calm Calm - N/A   Scattered Clouds
11:21 PM 51.8 °F - 51.8 °F 100% 30.25 in 7.0 mi Calm Calm - N/A   Scattered Clouds
11:42 PM 50.0 °F - 50.0 °F 100% 30.25 in 7.0 mi Calm Calm - N/A   Clear